Hourly Data Report for September 12, 2020

LOURDES DE BLANC SABLON A
QUEBEC
Current Station Operator: NAVCAN

51°26'31.000" N
57°11'10.000" W
37.20 m
7040815
71808
YBX

Download Data

Hourly Data (September 2020)
Hourly Data Report for September 12, 2020
TIME Temp Definition
°C
Dew Point Definition
°C
Rel Hum Definition
%
Wind Dir Definition
10's deg

Wind Spd Definition
km/h
Visibility Definition
km
Stn Press Definition
kPa
Hmdx Definition


Wind Chill Definition


Weather Definition


00:00 9.6 7.2 85 26 18 24.1 101.16     LegendNANA
01:00 9.8 7.3 84 26 14 24.1 101.12     LegendNANA
02:00 9.8 7.2 84 27 13 24.1 101.12     Mainly Clear
03:00 8.9 7.1 88 27 8 24.1 101.09     LegendNANA
04:00 8.7 6.2 84 26 10 24.1 101.10     LegendNANA
05:00 6.9 5.5 91 27 6 24.1 101.13     Mainly Clear
06:00 7.3 5.9 91 29 10 24.1 101.17     LegendNANA
07:00 9.9 6.4 79 27 13 24.1 101.15     LegendNANA
08:00 10.8 6.4 74 26 22 24.1 101.16     Mostly Cloudy
09:00 10.4 6.1 75 26 21 24.1 101.19     LegendNANA
10:00 11.5 6.9 73 25 23 24.1 101.18     LegendNANA
11:00 12.0 7.3 73 24 27 24.1 101.16     Mostly Cloudy
12:00 13.1 8.5 74 24 26 24.1 101.12     LegendNANA
13:00 13.2 9.0 75 24 35 24.1 101.10     LegendNANA
14:00 13.5 9.2 75 24 28 24.1 101.13     Mostly Cloudy
15:00 13.1 9.3 77 25 31 24.1 101.16     LegendNANA
16:00 13.0 8.7 75 26 22 24.1 101.24     LegendNANA
17:00 12.0 9.7 86 25 12 24.1 101.25     Mainly Clear
18:00 11.8 9.6 87 26 17 24.1 101.32     LegendNANA
19:00 9.2 6.1 81 32 7 24.1 101.42     LegendNANA
20:00 7.2 5.0 86 30 8 24.1 101.49     Mainly Clear
21:00 6.2 4.6 89 3 5 24.1 101.56     LegendNANA
22:00 7.6 4.6 81 30 13 24.1 101.60     LegendNANA
23:00 5.4 3.1 85 36 2 24.1 101.63     Clear

Notes on Data Quality.

Legend

  • E = Estimated
  • M = Missing
  • NA = Not Available*
  • [empty] = Indicates an unobserved value
Date modified: